{"data":{"norad_id":56417,"epoch":"2026-05-24T23:32:11.143392Z","epoch_age_seconds":72839,"freshness":"FRESH","line1":"1 56417U 23061AV  26144.98068453  .00000273  00000+0  19456-4 0  9995","line2":"2 56417  43.0052 116.0647 0001903 279.9855  80.0782 15.27577127168545","mean_motion":15.27577127,"eccentricity":0.0001903,"inclination_deg":43.0052,"raan_deg":116.0647,"arg_perigee_deg":279.9855,"mean_anomaly_deg":80.0782,"bstar":1.9456e-5,"rev_number":16854,"period_min":94.266926006414,"perigee_km":481.7520134975,"apogee_km":484.36338419988,"semimajor_km":6861.1946988487,"source":"CELESTRAK","updated_at":"2026-05-25T13:38:18.062412Z"}}